Weather History for K2D5 - December, 2012

Change the Weather History Date:

Wednesday, December 5, 2012

  Actual Average (KABR) Record (KABR)
Temperature  
Mean Temperature 28 °F 19 °F  
Max Temperature 41 °F 29 °F 57 °F (1939)
Min Temperature 15 °F 9 °F -25 °F (2005)
Degree Days  
Heating Degree Days 37 46  
Month to date heating degree days 226  
Since 1 July heating degree days 2189  
Cooling Degree Days 0 0  
Month to date cooling degree days 0  
Year to date cooling degree days 525  
Moisture  
Dew Point 20 °F    
Average Humidity 75    
Maximum Humidity 93    
Minimum Humidity 49    
Precipitation  
Precipitation 0.00 in 0.02 in 0.41 in (1936)
Month to date precipitation 0.09  
Year to date precipitation 21.29  
Snow  
Snow 0.00 in - - ()
Month to date snowfall  
Since 1 July snowfall  
Snow Depth -    
Sea Level Pressure  
Sea Level Pressure 29.93 in    
Wind  
Wind Speed 11 mph (ESE)    
Max Wind Speed 16 mph    
Max Gust Speed 23 mph    
Visibility 10 miles    
Events      
T = Trace of Precipitation, MM = Missing Value Source: NWS Daily Summary

Daily Weather History Graph

Daily Weather History Graph

Search for Another Location

Airport or City:

Trip Planner

Search our weather history database for the weather conditions in past years. The results will help you decide how hot, cold, wet, or windy it might be!

Date:

Astronomy

Dec. 05, 2012 Rise Set
Actual Time 7:59 AM CST 4:46 PM CST
Civil Twilight 7:25 AM CST 5:21 PM CST
Nautical Twilight 6:47 AM CST 5:58 PM CST
Astronomical Twilight 6:11 AM CST 6:35 PM CST
Moon 11:55 PM CST (12/5) 12:08 PM CST (12/5)
Length of Visible Light 9h 55m
Length of Day
8h 47m
Waning Gibbous, 59% of the Moon is Illuminated
Dec 5
Waning Gibbous
Dec 6
Last Quarter
Dec 13
New
Dec 19
First Quarter
Dec 28
Full

Hourly Weather History & Observations

Time (CST) Temp. Windchill Dew Point Humidity Pressure Visibility Wind Dir Wind Speed Gust Speed Precip Events Conditions
12:15 AM 17.6 °F 5.0 °F 14.0 °F 86% 30.27 in 10.0 mi East 11.5 mph - N/A   Unknown
12:35 AM 17.6 °F 3.7 °F 14.0 °F 86% 30.26 in 10.0 mi East 13.8 mph - N/A   Unknown
12:55 AM 17.6 °F 4.3 °F 14.0 °F 86% 30.25 in 10.0 mi East 12.7 mph - N/A   Clear
1:15 AM 15.8 °F 3.4 °F 14.0 °F 93% 30.25 in 10.0 mi East 10.4 mph - N/A   Clear
1:55 AM 15.8 °F 3.4 °F 14.0 °F 93% 30.24 in 10.0 mi East 10.4 mph - N/A   Unknown
2:15 AM 15.8 °F 3.4 °F 14.0 °F 93% 30.23 in 10.0 mi East 10.4 mph - N/A   Unknown
2:35 AM 15.8 °F 2.7 °F 14.0 °F 93% 30.22 in 10.0 mi East 11.5 mph - N/A   Unknown
2:55 AM 15.8 °F 2.1 °F 14.0 °F 93% 30.21 in 10.0 mi East 12.7 mph - N/A   Unknown
3:15 AM 15.8 °F 1.4 °F 14.0 °F 93% 30.18 in 10.0 mi East 13.8 mph - N/A   Clear
3:35 AM 15.8 °F 2.7 °F 14.0 °F 93% 30.17 in 10.0 mi East 11.5 mph - N/A   Clear
3:55 AM 15.8 °F 7.2 °F 14.0 °F 93% 30.17 in 10.0 mi East 5.8 mph - N/A   Clear
4:15 AM 15.8 °F 6.1 °F 14.0 °F 93% 30.16 in 10.0 mi East 6.9 mph - N/A   Unknown
4:35 AM 15.8 °F 5.1 °F 14.0 °F 93% 30.14 in 10.0 mi East 8.1 mph - N/A   Unknown
4:55 AM 15.8 °F 4.2 °F 14.0 °F 93% 30.13 in 10.0 mi East 9.2 mph - N/A   Unknown
5:15 AM 17.6 °F 5.0 °F 14.0 °F 86% 30.11 in 10.0 mi East 11.5 mph - N/A   Unknown
5:35 AM 17.6 °F 9.3 °F 14.0 °F 86% 30.11 in 10.0 mi East 5.8 mph - N/A   Unknown
5:55 AM 15.8 °F 6.1 °F 14.0 °F 93% 30.11 in 10.0 mi East 6.9 mph - N/A   Clear
6:15 AM 15.8 °F 5.1 °F 14.0 °F 93% 30.09 in 10.0 mi East 8.1 mph - N/A   Clear
6:35 AM 15.8 °F 3.4 °F 14.0 °F 93% 30.07 in 10.0 mi East 10.4 mph - N/A   Clear
6:55 AM 17.6 °F 9.3 °F 15.8 °F 93% 30.07 in 10.0 mi East 5.8 mph - N/A   Unknown
8:35 AM 19.4 °F 6.6 °F 17.6 °F 93% 30.01 in 10.0 mi East 12.7 mph - N/A   Clear
8:55 AM 23.0 °F 10.6 °F 17.6 °F 80% 29.99 in 10.0 mi ESE 13.8 mph - N/A   Clear
9:15 AM 23.0 °F 13.9 °F 19.4 °F 86% 29.99 in 10.0 mi ESE 8.1 mph - N/A   Clear
9:35 AM 24.8 °F 15.3 °F 19.4 °F 80% 29.98 in 10.0 mi SE 9.2 mph - N/A   Clear
9:55 AM 26.6 °F 19.1 °F 21.2 °F 80% 29.98 in 10.0 mi ESE 6.9 mph - N/A   Clear
10:15 AM 30.2 °F 20.2 °F 24.8 °F 80% 29.96 in 10.0 mi SSE 12.7 mph - N/A   Unknown
10:35 AM 32.0 °F 21.2 °F 23.0 °F 69% 29.95 in 10.0 mi SSE 16.1 mph 23.0 mph N/A   Unknown
10:55 AM 32.0 °F 21.6 °F 21.2 °F 64% 29.93 in 10.0 mi SSE 15.0 mph 21.9 mph N/A   Unknown
11:15 AM 32.0 °F 21.2 °F 23.0 °F 69% 29.92 in 10.0 mi SSE 16.1 mph - N/A   Unknown
11:35 AM 33.8 °F 24.3 °F 23.0 °F 65% 29.90 in 10.0 mi SSE 13.8 mph 18.4 mph N/A   Unknown
11:55 AM 33.8 °F 24.8 °F 21.2 °F 60% 29.89 in 10.0 mi SSE 12.7 mph - N/A   Unknown
12:15 PM 33.8 °F 23.9 °F 21.2 °F 60% 29.87 in 10.0 mi SSE 15.0 mph 18.4 mph N/A   Unknown
12:35 PM 35.6 °F 26.6 °F 23.0 °F 60% 29.86 in 10.0 mi SSE 13.8 mph - N/A   Unknown
12:55 PM 35.6 °F 27.1 °F 23.0 °F 60% 29.85 in 10.0 mi SSE 12.7 mph - N/A   Unknown
1:15 PM 37.4 °F 29.8 °F 23.0 °F 56% 29.83 in 10.0 mi SE 11.5 mph - N/A   Unknown
1:35 PM 37.4 °F 29.8 °F 23.0 °F 56% 29.81 in 10.0 mi SSE 11.5 mph - N/A   Unknown
1:55 PM 37.4 °F 30.3 °F 23.0 °F 56% 29.79 in 10.0 mi SE 10.4 mph - N/A   Clear
2:15 PM 39.2 °F 30.8 °F 23.0 °F 52% 29.78 in 10.0 mi SSE 15.0 mph - N/A   Clear
2:35 PM 39.2 °F 31.2 °F 23.0 °F 52% 29.78 in 10.0 mi SE 13.8 mph - N/A   Clear
2:55 PM 41.0 °F 33.9 °F 23.0 °F 49% 29.76 in 10.0 mi SSE 12.7 mph - N/A   Clear
3:15 PM 41.0 °F 34.3 °F 24.8 °F 53% 29.74 in 10.0 mi SE 11.5 mph - N/A   Clear
3:35 PM 41.0 °F 33.9 °F 24.8 °F 53% 29.74 in 10.0 mi SSE 12.7 mph - N/A   Clear
3:55 PM 41.0 °F 35.2 °F 24.8 °F 53% 29.73 in 10.0 mi SE 9.2 mph - N/A   Clear
4:15 PM 39.2 °F 35.0 °F 24.8 °F 56% 29.73 in 10.0 mi SE 5.8 mph - N/A   Clear
4:35 PM 37.4 °F 30.8 °F 23.0 °F 56% 29.72 in 10.0 mi SE 9.2 mph - N/A   Clear
4:55 PM 35.6 °F 29.2 °F 23.0 °F 60% 29.73 in 10.0 mi ESE 8.1 mph - N/A   Clear
5:15 PM 32.0 °F 23.0 °F 23.0 °F 69% 29.71 in 10.0 mi SE 11.5 mph - N/A   Clear
5:35 PM 33.8 °F 26.4 °F 24.8 °F 70% 29.71 in 10.0 mi SE 9.2 mph - N/A   Clear
5:55 PM 33.8 °F 27.7 °F 24.8 °F 70% 29.70 in 10.0 mi SE 6.9 mph - N/A   Clear
6:15 PM 32.0 °F 28.7 °F 23.0 °F 69% 29.70 in 10.0 mi SE 3.5 mph - N/A   Clear
6:35 PM 32.0 °F 24.8 °F 23.0 °F 69% 29.68 in 10.0 mi ESE 8.1 mph - N/A   Clear
6:55 PM 32.0 °F 24.2 °F 24.8 °F 75% 29.68 in 10.0 mi ESE 9.2 mph - N/A   Unknown
7:15 PM 32.0 °F 24.2 °F 24.8 °F 75% 29.67 in 10.0 mi ESE 9.2 mph - N/A   Unknown
7:35 PM 32.0 °F 25.6 °F 24.8 °F 75% 29.67 in 10.0 mi ESE 6.9 mph - N/A   Unknown
7:55 PM 32.0 °F 26.4 °F 24.8 °F 75% 29.67 in 10.0 mi ESE 5.8 mph - N/A   Unknown
8:15 PM 32.0 °F 25.6 °F 24.8 °F 75% 29.66 in 10.0 mi ESE 6.9 mph - N/A   Unknown
8:35 PM 32.0 °F - 24.8 °F 75% 29.66 in 10.0 mi Calm Calm - N/A   Unknown
8:55 PM 32.0 °F - 26.6 °F 80% 29.68 in 10.0 mi Calm Calm - N/A   Unknown